sat.trackr.live / text

‹ back to catalog

YAOGAN-31 03A

NORAD 47691 · 2021-014A

PAYLOAD ACTIVE UNKNOWN

§ Identity

Operator
Country
PRC
Launch date
2021-02-24
Launch site
JSC
Launch vehicle
Mass (kg)
RCS (m²)

External: N2YO · Heavens-Above · Gunter

§ Orbital elements

Epoch: 2026-05-25T04:47:32.077248Z

Period
107.03 min
Inclination
63.4040°
Eccentricity
0.0175044
Mean motion
13.45448104 rev/d
Perigee alt
958.3 km
Apogee alt
1,219.8 km
Semi-major
7,467.2 km
B*
2.7540e-5
RAAN
256.9253°
Arg perigee
0.5895°
Mean anomaly
359.5305°
Rev number
25,768

§ Raw data

YAOGAN-31 03A1 47691U 21014A   26145.19967682 -.00000072  00000+0  27540-4 0  99922 47691  63.4040 256.9253 0175044   0.5895 359.5305 13.45448104257688

JSON: /api/v1/satellites/47691 · /tle

For live sub-satellite position, see the globe view (requires WebGL).

§ Visibility from observer

Set your observer location to see the next 7 days of passes ≥ 10°. The values pass through the URL so the page stays shareable.

No JS? Fill the form by hand. The geolocation button needs JavaScript.